Flag for Austria Weather past 2 weeks in Horn, Lower Austria, Austria

Now
56 °F

Cool.


Feels Like: 56 °F
Forecast: 50 / 69 °F
Wind: 2 mph from Northwest

Location: Retz

Current Time: May 24, 2015 at 4:24:03 PM

Latest Report: May 24, 2015 at 3:00 PM


Visibility: N/A

Pressure: 30.06 "Hg

Humidity: 91%

Dew point: 53 °F

Location of HornLocation

Historic Weather in Horn — Graph

°F

Horn temperature yesterday

Maximum temperature yesterday: 56 °F (at 1:00 PM)
Minimum temperature yesterday: 51 °F (at 10:00 PM)
Average temperature yesterday: 54 °F

Past Weeks' High & Low Weather Summary

 TemperatureHumidityPressure
High74 °F (May 12, 5:00 PM)98% (May 23, 7:00 PM)30.41 "Hg (May 23, 7:00 PM)
Low45 °F (May 11, 6:00 AM)26% (May 11, 3:00 PM)29.72 "Hg (May 19, 6:00 AM)
Average58 °F65%30.04 "Hg
* Reported May 9 3:00 PM — May 24 3:00 PM, Horn, Weather by CustomWeather, © 2015

Note: Actual official high and low records may vary slightly from our data, if they occured in-between our weather recording intervals... More about our weather records

Advertising

Horn weather history for previous 24 hours

 ConditionsComfort  
Time TempWeatherWind HumidityBarometerVisibility
3:00 PM
Sun, May 24
56 °FCool.2 mph91%30.06 "HgN/A
2:00 PM55 °FOvercast.2 mph89%30.06 "Hg7 mi
1:00 PM54 °FCool.2 mph94%30.07 "HgN/A
12:00 PM53 °FCool.3 mph94%30.06 "HgN/A
11:00 AM52 °FCool.3 mph96%30.06 "HgN/A
10:00 AM51 °FCool.5 mph97%30.05 "HgN/A
9:00 AM50 °FCool.5 mph97%30.04 "HgN/A
8:00 AM50 °FLight rain. Overcast.5 mph97%30.03 "Hg4 mi
7:00 AM50 °FOvercast.5 mph97%30.01 "Hg2 mi
6:00 AM49 °FCool.3 mph98%30.01 "HgN/A
5:00 AM49 °FCool.3 mph98%30.00 "HgN/A
4:00 AM50 °FCool.3 mph98%30.00 "HgN/A
3:00 AM50 °FFog.5 mph96%29.99 "HgN/A
2:00 AM50 °FCool.5 mph96%30.00 "HgN/A
1:00 AM50 °FFog.5 mph97%29.99 "HgN/A
12:00 AM51 °FFog.5 mph97%29.99 "HgN/A
10:00 PM
Sat, May 23
51 °FFog.3 mph97%29.98 "HgN/A
9:00 PM52 °FFog.3 mph97%29.97 "HgN/A
8:00 PM52 °FLight rain. Overcast.5 mph97%29.97 "Hg2 mi
7:00 PM52 °FFog.2 mph98%29.97 "HgN/A
6:00 PM53 °FFog.5 mph95%29.95 "HgN/A
5:00 PM53 °FCool.3 mph97%29.96 "HgN/A
4:00 PM54 °FFog.2 mph95%29.96 "HgN/A
Weather by CustomWeather, © 2015

See weather overviewHow to use our weather pages